Terminal Aerodrome Forecast
Issued by NWS

Current Version | Previous Version | Graphics & Text | Print | Product List | Glossary On
Versions: 1 2 3 4 5 6 7 8 9 10 11 12 13 14 15 16 17 18 19 20 21 22 23 24 25 26 27 28 29 30 31
000
FTUS41 KILN 200600 AAA
TAFLCK
TAF AMD
KLCK 200610Z 2006/2106 00000KT 5SM HZ SCT008 BKN015 OVC050
      TEMPO 2006/2010 1 1/2SM -SHRA BR OVC008
     FM201000 07003KT 5SM BR OVC025
     FM201400 13004KT P6SM OVC025
     FM210100 VRB03KT P6SM BKN025=

USA.gov is the U.S. government's official web portal to all federal, state and local government web resources and services.